Kisumu, Kenya

9:42 PM EAT on May 25, 2017 (GMT +0300)
Kisumu

Weather History for HKKI - October, 2012

Change the Weather History Date:

Saturday, October 6, 2012

  Actual Average Record
Temperature  
Mean Temperature 75 °F -  
Max Temperature 88 °F - - ()
Min Temperature 62 °F - - ()
Cooling Degree Days 10    
Growing Degree Days 25 (Base 50)    
Moisture  
Dew Point 62 °F    
Average Humidity 71    
Maximum Humidity 100    
Minimum Humidity 45    
Precipitation  
Precipitation 0.08 in - - ()
Sea Level Pressure  
Sea Level Pressure 29.99 in    
Wind  
Wind Speed 5 mph ()    
Max Wind Speed 21 mph    
Max Gust Speed -    
Visibility 7.1 miles    
Events Thunderstorm    
T = Trace of Precipitation, MM = Missing Value Source: Averaged Metar Reports

Daily Weather History Graph

Daily Weather History Graph

Search for Another Location

Airport or City:

Trip Planner

Search our weather history database for the weather conditions in past years. The results will help you decide how hot, cold, wet, or windy it might be!

Date:

Astronomy

Oct. 06, 2012 Rise Set
Actual Time 6:25 AM EAT 6:32 PM EAT
Civil Twilight 6:04 AM EAT 6:53 PM EAT
Nautical Twilight 5:40 AM EAT 7:17 PM EAT
Astronomical Twilight 5:16 AM EAT 7:41 PM EAT
Moon 11:28 PM EAT (10/6) 11:03 AM EAT (10/6)
Length of Visible Light 12h 48m
Length of Day
12h 06m
Waning Gibbous, 68% of the Moon is Illuminated
Oct 6
Waning Gibbous
Oct 8
Last Quarter
Oct 15
New
Oct 22
First Quarter
Oct 29
Full

Hourly Weather History & Observations

Time (EAT) Temp. Heat Index Dew Point Humidity Pressure Visibility Wind Dir Wind Speed Gust Speed Precip Events Conditions
12:00 AM 73.4 °F - 60.8 °F 65% 29.98 in - East 6.9 mph - N/A   Clear
1:00 AM 69.8 °F - 64.4 °F 83% 29.95 in - Calm Calm - N/A   Clear
2:00 AM 68.0 °F - 62.6 °F 83% 29.98 in - Calm Calm - N/A   Clear
3:00 AM 67 °F - 61 °F 74%  in 16 mi East 5.8 mph - -   Scattered Clouds
3:00 AM 68.0 °F - 60.8 °F 78% 29.95 in - East 5.8 mph - N/A   Clear
4:00 AM 68.0 °F - 60.8 °F 78% 29.98 in - Calm Calm - N/A   Clear
5:00 AM 64.4 °F - 60.8 °F 88% 29.98 in 6.2 mi Calm Calm - N/A   Mostly Cloudy
6:00 AM 64.4 °F - 60.8 °F 88% 30.01 in 6.2 mi Calm Calm - N/A   Mostly Cloudy
7:00 AM 64.4 °F - 60.8 °F 88% 30.04 in 6.2 mi Calm Calm - N/A   Mostly Cloudy
8:00 AM 69.8 °F - 60.8 °F 73% 30.04 in 6.2 mi Calm Calm - N/A   Mostly Cloudy
9:00 AM 75.2 °F - 60.8 °F 61% 30.04 in 6.2 mi South 3.5 mph - N/A   Mostly Cloudy
10:00 AM 78.8 °F - 60.8 °F 54% 30.04 in 6.2 mi WSW 4.6 mph - N/A   Mostly Cloudy
11:00 AM 78.8 °F - 62.6 °F 57% 30.04 in 6.2 mi WSW 9.2 mph - N/A   Mostly Cloudy
12:00 PM 62.6 °F - 62.6 °F 100% 30.04 in 6.2 mi SW 12.7 mph - N/A   Mostly Cloudy
1:00 PM 84.2 °F 85.6 °F 64.4 °F 51% 30.01 in 6.2 mi SW 16.1 mph - N/A   Mostly Cloudy
2:00 PM 87.8 °F 89.4 °F 64.4 °F 46% 29.98 in 6.2 mi SW 20.7 mph - N/A Thunderstorm Light Thunderstorm
3:00 PM 86.0 °F 86.6 °F 62.6 °F 45% 29.92 in 6.2 mi SW 17.3 mph - N/A Thunderstorm Light Thunderstorm
4:00 PM 68.0 °F - 62.6 °F 83% 29.92 in 6.2 mi NW 12.7 mph - N/A Thunderstorm Light Thunderstorm
5:00 PM 75.2 °F - 64.4 °F 69% 29.92 in 6.2 mi NNW 10.4 mph - N/A   Mostly Cloudy
6:00 PM - - - N/A% 29.92 in 6.2 mi East 10.4 mph - N/A   Mostly Cloudy
7:00 PM 75.2 °F - 64.4 °F 69% 29.95 in 6.2 mi ENE 3.5 mph - N/A   Mostly Cloudy
8:00 PM 73.4 °F - 66.2 °F 78% 29.98 in 6.2 mi East 6.9 mph - N/A   Mostly Cloudy
9:00 PM 74 °F - 62 °F 57%  in 16 mi East 11.2 mph - -   Partly Cloudy
9:00 PM 73.4 °F - 62.6 °F 69% 29.98 in 6.2 mi East 5.8 mph - N/A   Mostly Cloudy
10:00 PM 73.4 °F - 62.6 °F 69% 29.98 in 6.2 mi Calm Calm - N/A   Mostly Cloudy
11:00 PM 71.6 °F - 64.4 °F 78% 30.01 in 6.2 mi Calm Calm - N/A   Mostly Cloudy